owner,sensor,date,latitude,longitude,vertical_datum,sea_water_temperature,qcFlag 
ENP,ioos.station.NOAA.NDBC:WWEF1:1,2016-03-01T00:00:00Z,25.2320,-80.9380,1.0,21.49,2 
ENP,ioos.station.NOAA.NDBC:WWEF1:1,2016-03-01T01:00:00Z,25.2320,-80.9380,1.0,21.42,2 
ENP,ioos.station.NOAA.NDBC:WWEF1:1,2016-03-01T04:00:00Z,25.2320,-80.9380,1.0,21.18,2 
ENP,ioos.station.NOAA.NDBC:WWEF1:1,2016-03-01T09:00:00Z,25.2320,-80.9380,1.0,20.8,2 
ENP,ioos.station.NOAA.NDBC:WWEF1:1,2016-03-01T10:00:00Z,25.2320,-80.9380,1.0,20.72,2 
ENP,ioos.station.NOAA.NDBC:WWEF1:1,2016-03-01T11:00:00Z,25.2320,-80.9380,1.0,20.69,2 
ENP,ioos.station.NOAA.NDBC:WWEF1:1,2016-03-01T12:00:00Z,25.2320,-80.9380,1.0,20.76,2 
ENP,ioos.station.NOAA.NDBC:WWEF1:1,2016-03-01T13:00:00Z,25.2320,-80.9380,1.0,20.72,2 
ENP,ioos.station.NOAA.NDBC:WWEF1:1,2016-03-01T15:00:00Z,25.2320,-80.9380,1.0,20.76,2 
ENP,ioos.station.NOAA.NDBC:WWEF1:1,2016-03-01T16:00:00Z,25.2320,-80.9380,1.0,20.9,2 
ENP,ioos.station.NOAA.NDBC:WWEF1:1,2016-03-01T17:00:00Z,25.2320,-80.9380,1.0,21.08,2 
ENP,ioos.station.NOAA.NDBC:WWEF1:1,2016-03-01T19:00:00Z,25.2320,-80.9380,1.0,22.87,2 
ENP,ioos.station.NOAA.NDBC:WWEF1:1,2016-03-01T20:00:00Z,25.2320,-80.9380,1.0,23.43,2 
ENP,ioos.station.NOAA.NDBC:WWEF1:1,2016-03-01T21:00:00Z,25.2320,-80.9380,1.0,23.9,2 
ENP,ioos.station.NOAA.NDBC:WWEF1:1,2016-03-01T22:00:00Z,25.2320,-80.9380,1.0,23.91,2 
ENP,ioos.station.NOAA.NDBC:WWEF1:1,2016-03-01T23:00:00Z,25.2320,-80.9380,1.0,23.79,2 
ENP,ioos.station.NOAA.NDBC:WWEF1:1,2016-03-02T00:00:00Z,25.2320,-80.9380,1.0,23.75,2 
ENP,ioos.station.NOAA.NDBC:WWEF1:1,2016-03-02T01:00:00Z,25.2320,-80.9380,1.0,23.63,2 
ENP,ioos.station.NOAA.NDBC:WWEF1:1,2016-03-02T04:00:00Z,25.2320,-80.9380,1.0,23.19,2 
ENP,ioos.station.NOAA.NDBC:WWEF1:1,2016-03-02T07:00:00Z,25.2320,-80.9380,1.0,22.72,2 
ENP,ioos.station.NOAA.NDBC:WWEF1:1,2016-03-02T08:00:00Z,25.2320,-80.9380,1.0,22.52,2 
ENP,ioos.station.NOAA.NDBC:WWEF1:1,2016-03-02T09:00:00Z,25.2320,-80.9380,1.0,22.33,2 
ENP,ioos.station.NOAA.NDBC:WWEF1:1,2016-03-02T10:00:00Z,25.2320,-80.9380,1.0,22.13,2 
ENP,ioos.station.NOAA.NDBC:WWEF1:1,2016-03-02T11:00:00Z,25.2320,-80.9380,1.0,22.0,2 
ENP,ioos.station.NOAA.NDBC:WWEF1:1,2016-03-02T12:00:00Z,25.2320,-80.9380,1.0,21.91,2 
ENP,ioos.station.NOAA.NDBC:WWEF1:1,2016-03-02T13:00:00Z,25.2320,-80.9380,1.0,21.87,2 
ENP,ioos.station.NOAA.NDBC:WWEF1:1,2016-03-02T14:00:00Z,25.2320,-80.9380,1.0,21.84,2 
ENP,ioos.station.NOAA.NDBC:WWEF1:1,2016-03-02T15:00:00Z,25.2320,-80.9380,1.0,21.87,2 
ENP,ioos.station.NOAA.NDBC:WWEF1:1,2016-03-02T16:00:00Z,25.2320,-80.9380,1.0,21.95,2 
ENP,ioos.station.NOAA.NDBC:WWEF1:1,2016-03-02T17:00:00Z,25.2320,-80.9380,1.0,22.11,2 
ENP,ioos.station.NOAA.NDBC:WWEF1:1,2016-03-02T18:00:00Z,25.2320,-80.9380,1.0,22.37,2 
ENP,ioos.station.NOAA.NDBC:WWEF1:1,2016-03-02T19:00:00Z,25.2320,-80.9380,1.0,22.62,2 
ENP,ioos.station.NOAA.NDBC:WWEF1:1,2016-03-02T20:00:00Z,25.2320,-80.9380,1.0,22.88,2 
ENP,ioos.station.NOAA.NDBC:WWEF1:1,2016-03-02T21:00:00Z,25.2320,-80.9380,1.0,23.08,2 
ENP,ioos.station.NOAA.NDBC:WWEF1:1,2016-03-02T22:00:00Z,25.2320,-80.9380,1.0,23.24,2 
ENP,ioos.station.NOAA.NDBC:WWEF1:1,2016-03-02T23:00:00Z,25.2320,-80.9380,1.0,23.31,2 
ENP,ioos.station.NOAA.NDBC:WWEF1:1,2016-03-03T00:00:00Z,25.2320,-80.9380,1.0,23.34,2 
ENP,ioos.station.NOAA.NDBC:WWEF1:1,2016-03-03T01:00:00Z,25.2320,-80.9380,1.0,23.28,2 
ENP,ioos.station.NOAA.NDBC:WWEF1:1,2016-03-03T04:00:00Z,25.2320,-80.9380,1.0,23.14,2 
ENP,ioos.station.NOAA.NDBC:WWEF1:1,2016-03-03T07:00:00Z,25.2320,-80.9380,1.0,23.02,2 
ENP,ioos.station.NOAA.NDBC:WWEF1:1,2016-03-03T08:00:00Z,25.2320,-80.9380,1.0,23.0,2 
ENP,ioos.station.NOAA.NDBC:WWEF1:1,2016-03-03T09:00:00Z,25.2320,-80.9380,1.0,22.9,2 
ENP,ioos.station.NOAA.NDBC:WWEF1:1,2016-03-03T10:00:00Z,25.2320,-80.9380,1.0,22.76,2 
ENP,ioos.station.NOAA.NDBC:WWEF1:1,2016-03-03T11:00:00Z,25.2320,-80.9380,1.0,22.87,2 
ENP,ioos.station.NOAA.NDBC:WWEF1:1,2016-03-03T12:00:00Z,25.2320,-80.9380,1.0,23.0,2 
ENP,ioos.station.NOAA.NDBC:WWEF1:1,2016-03-03T13:00:00Z,25.2320,-80.9380,1.0,22.96,2 
ENP,ioos.station.NOAA.NDBC:WWEF1:1,2016-03-03T14:00:00Z,25.2320,-80.9380,1.0,22.7,2 
ENP,ioos.station.NOAA.NDBC:WWEF1:1,2016-03-03T15:00:00Z,25.2320,-80.9380,1.0,22.62,2 
ENP,ioos.station.NOAA.NDBC:WWEF1:1,2016-03-03T16:00:00Z,25.2320,-80.9380,1.0,22.81,2 
ENP,ioos.station.NOAA.NDBC:WWEF1:1,2016-03-03T17:00:00Z,25.2320,-80.9380,1.0,23.38,2 
ENP,ioos.station.NOAA.NDBC:WWEF1:1,2016-03-03T18:00:00Z,25.2320,-80.9380,1.0,23.82,2 
ENP,ioos.station.NOAA.NDBC:WWEF1:1,2016-03-03T19:00:00Z,25.2320,-80.9380,1.0,24.1,2 
ENP,ioos.station.NOAA.NDBC:WWEF1:1,2016-03-03T20:00:00Z,25.2320,-80.9380,1.0,24.36,2 
ENP,ioos.station.NOAA.NDBC:WWEF1:1,2016-03-03T21:00:00Z,25.2320,-80.9380,1.0,24.54,2 
ENP,ioos.station.NOAA.NDBC:WWEF1:1,2016-03-03T22:00:00Z,25.2320,-80.9380,1.0,24.61,2 
ENP,ioos.station.NOAA.NDBC:WWEF1:1,2016-03-03T23:00:00Z,25.2320,-80.9380,1.0,24.64,2 
ENP,ioos.station.NOAA.NDBC:WWEF1:1,2016-03-04T00:00:00Z,25.2320,-80.9380,1.0,24.59,2 
ENP,ioos.station.NOAA.NDBC:WWEF1:1,2016-03-04T01:00:00Z,25.2320,-80.9380,1.0,24.49,2 
ENP,ioos.station.NOAA.NDBC:WWEF1:1,2016-03-04T04:00:00Z,25.2320,-80.9380,1.0,24.2,2 
ENP,ioos.station.NOAA.NDBC:WWEF1:1,2016-03-04T07:00:00Z,25.2320,-80.9380,1.0,24.03,2 
ENP,ioos.station.NOAA.NDBC:WWEF1:1,2016-03-04T08:00:00Z,25.2320,-80.9380,1.0,24.0,2 
ENP,ioos.station.NOAA.NDBC:WWEF1:1,2016-03-04T09:00:00Z,25.2320,-80.9380,1.0,23.95,2 
ENP,ioos.station.NOAA.NDBC:WWEF1:1,2016-03-04T10:00:00Z,25.2320,-80.9380,1.0,23.9,2 
ENP,ioos.station.NOAA.NDBC:WWEF1:1,2016-03-04T11:00:00Z,25.2320,-80.9380,1.0,23.83,2 
ENP,ioos.station.NOAA.NDBC:WWEF1:1,2016-03-04T12:00:00Z,25.2320,-80.9380,1.0,23.76,2 
ENP,ioos.station.NOAA.NDBC:WWEF1:1,2016-03-04T14:00:00Z,25.2320,-80.9380,1.0,23.55,2 
ENP,ioos.station.NOAA.NDBC:WWEF1:1,2016-03-04T15:00:00Z,25.2320,-80.9380,1.0,23.62,2 
ENP,ioos.station.NOAA.NDBC:WWEF1:1,2016-03-04T16:00:00Z,25.2320,-80.9380,1.0,23.81,2 
ENP,ioos.station.NOAA.NDBC:WWEF1:1,2016-03-04T17:00:00Z,25.2320,-80.9380,1.0,23.88,2 
ENP,ioos.station.NOAA.NDBC:WWEF1:1,2016-03-04T18:00:00Z,25.2320,-80.9380,1.0,24.08,2 
ENP,ioos.station.NOAA.NDBC:WWEF1:1,2016-03-04T19:00:00Z,25.2320,-80.9380,1.0,24.66,2 
ENP,ioos.station.NOAA.NDBC:WWEF1:1,2016-03-04T20:00:00Z,25.2320,-80.9380,1.0,25.09,2 
ENP,ioos.station.NOAA.NDBC:WWEF1:1,2016-03-04T21:00:00Z,25.2320,-80.9380,1.0,25.33,2 
ENP,ioos.station.NOAA.NDBC:WWEF1:1,2016-03-04T22:00:00Z,25.2320,-80.9380,1.0,25.49,2 
ENP,ioos.station.NOAA.NDBC:WWEF1:1,2016-03-04T23:00:00Z,25.2320,-80.9380,1.0,25.49,2 
ENP,ioos.station.NOAA.NDBC:WWEF1:1,2016-03-05T00:00:00Z,25.2320,-80.9380,1.0,25.4,2 
ENP,ioos.station.NOAA.NDBC:WWEF1:1,2016-03-05T01:00:00Z,25.2320,-80.9380,1.0,25.24,2 
ENP,ioos.station.NOAA.NDBC:WWEF1:1,2016-03-05T04:00:00Z,25.2320,-80.9380,1.0,24.74,2 
ENP,ioos.station.NOAA.NDBC:WWEF1:1,2016-03-05T07:00:00Z,25.2320,-80.9380,1.0,24.25,2 
ENP,ioos.station.NOAA.NDBC:WWEF1:1,2016-03-05T08:00:00Z,25.2320,-80.9380,1.0,24.12,2 
ENP,ioos.station.NOAA.NDBC:WWEF1:1,2016-03-05T09:00:00Z,25.2320,-80.9380,1.0,23.98,2 
ENP,ioos.station.NOAA.NDBC:WWEF1:1,2016-03-05T10:00:00Z,25.2320,-80.9380,1.0,23.85,2 
ENP,ioos.station.NOAA.NDBC:WWEF1:1,2016-03-05T11:00:00Z,25.2320,-80.9380,1.0,23.75,2 
ENP,ioos.station.NOAA.NDBC:WWEF1:1,2016-03-05T12:00:00Z,25.2320,-80.9380,1.0,23.59,2 
ENP,ioos.station.NOAA.NDBC:WWEF1:1,2016-03-05T13:00:00Z,25.2320,-80.9380,1.0,23.4,2 
ENP,ioos.station.NOAA.NDBC:WWEF1:1,2016-03-05T14:00:00Z,25.2320,-80.9380,1.0,23.28,2 
ENP,ioos.station.NOAA.NDBC:WWEF1:1,2016-03-05T15:00:00Z,25.2320,-80.9380,1.0,23.28,2 
ENP,ioos.station.NOAA.NDBC:WWEF1:1,2016-03-05T16:00:00Z,25.2320,-80.9380,1.0,23.42,2 
ENP,ioos.station.NOAA.NDBC:WWEF1:1,2016-03-05T17:00:00Z,25.2320,-80.9380,1.0,23.59,2 
ENP,ioos.station.NOAA.NDBC:WWEF1:1,2016-03-05T18:00:00Z,25.2320,-80.9380,1.0,23.72,2 
ENP,ioos.station.NOAA.NDBC:WWEF1:1,2016-03-05T19:00:00Z,25.2320,-80.9380,1.0,23.85,2 
ENP,ioos.station.NOAA.NDBC:WWEF1:1,2016-03-05T20:00:00Z,25.2320,-80.9380,1.0,24.12,2 
ENP,ioos.station.NOAA.NDBC:WWEF1:1,2016-03-05T21:00:00Z,25.2320,-80.9380,1.0,24.2,2 
ENP,ioos.station.NOAA.NDBC:WWEF1:1,2016-03-05T22:00:00Z,25.2320,-80.9380,1.0,24.23,2 
ENP,ioos.station.NOAA.NDBC:WWEF1:1,2016-03-05T23:00:00Z,25.2320,-80.9380,1.0,24.23,2 
ENP,ioos.station.NOAA.NDBC:WWEF1:1,2016-03-06T00:00:00Z,25.2320,-80.9380,1.0,24.18,2 
ENP,ioos.station.NOAA.NDBC:WWEF1:1,2016-03-06T01:00:00Z,25.2320,-80.9380,1.0,24.09,2 
ENP,ioos.station.NOAA.NDBC:WWEF1:1,2016-03-06T04:00:00Z,25.2320,-80.9380,1.0,23.54,2 
ENP,ioos.station.NOAA.NDBC:WWEF1:1,2016-03-06T07:00:00Z,25.2320,-80.9380,1.0,23.22,2 
ENP,ioos.station.NOAA.NDBC:WWEF1:1,2016-03-06T08:00:00Z,25.2320,-80.9380,1.0,23.13,2 
ENP,ioos.station.NOAA.NDBC:WWEF1:1,2016-03-06T09:00:00Z,25.2320,-80.9380,1.0,23.04,2 
ENP,ioos.station.NOAA.NDBC:WWEF1:1,2016-03-06T11:00:00Z,25.2320,-80.9380,1.0,22.84,2 
ENP,ioos.station.NOAA.NDBC:WWEF1:1,2016-03-06T12:00:00Z,25.2320,-80.9380,1.0,22.73,2 
ENP,ioos.station.NOAA.NDBC:WWEF1:1,2016-03-06T13:00:00Z,25.2320,-80.9380,1.0,22.57,2 
ENP,ioos.station.NOAA.NDBC:WWEF1:1,2016-03-06T14:00:00Z,25.2320,-80.9380,1.0,22.56,2 
ENP,ioos.station.NOAA.NDBC:WWEF1:1,2016-03-06T15:00:00Z,25.2320,-80.9380,1.0,22.67,2 
ENP,ioos.station.NOAA.NDBC:WWEF1:1,2016-03-06T16:00:00Z,25.2320,-80.9380,1.0,22.89,2 
ENP,ioos.station.NOAA.NDBC:WWEF1:1,2016-03-06T17:00:00Z,25.2320,-80.9380,1.0,23.15,2 
ENP,ioos.station.NOAA.NDBC:WWEF1:1,2016-03-06T18:00:00Z,25.2320,-80.9380,1.0,23.34,2 
ENP,ioos.station.NOAA.NDBC:WWEF1:1,2016-03-06T19:00:00Z,25.2320,-80.9380,1.0,23.66,2 
ENP,ioos.station.NOAA.NDBC:WWEF1:1,2016-03-06T20:00:00Z,25.2320,-80.9380,1.0,23.95,2 
ENP,ioos.station.NOAA.NDBC:WWEF1:1,2016-03-06T21:00:00Z,25.2320,-80.9380,1.0,24.17,2 
ENP,ioos.station.NOAA.NDBC:WWEF1:1,2016-03-06T22:00:00Z,25.2320,-80.9380,1.0,24.35,2 
ENP,ioos.station.NOAA.NDBC:WWEF1:1,2016-03-06T23:00:00Z,25.2320,-80.9380,1.0,24.41,2 
ENP,ioos.station.NOAA.NDBC:WWEF1:1,2016-03-07T00:00:00Z,25.2320,-80.9380,1.0,24.35,2 
ENP,ioos.station.NOAA.NDBC:WWEF1:1,2016-03-07T01:00:00Z,25.2320,-80.9380,1.0,24.18,2 
ENP,ioos.station.NOAA.NDBC:WWEF1:1,2016-03-07T04:00:00Z,25.2320,-80.9380,1.0,23.36,2 
ENP,ioos.station.NOAA.NDBC:WWEF1:1,2016-03-07T07:00:00Z,25.2320,-80.9380,1.0,22.79,2 
ENP,ioos.station.NOAA.NDBC:WWEF1:1,2016-03-07T08:00:00Z,25.2320,-80.9380,1.0,22.77,2 
ENP,ioos.station.NOAA.NDBC:WWEF1:1,2016-03-07T09:00:00Z,25.2320,-80.9380,1.0,22.77,2 
ENP,ioos.station.NOAA.NDBC:WWEF1:1,2016-03-07T10:00:00Z,25.2320,-80.9380,1.0,22.69,2 
ENP,ioos.station.NOAA.NDBC:WWEF1:1,2016-03-07T11:00:00Z,25.2320,-80.9380,1.0,22.57,2 
ENP,ioos.station.NOAA.NDBC:WWEF1:1,2016-03-07T13:00:00Z,25.2320,-80.9380,1.0,22.22,2 
ENP,ioos.station.NOAA.NDBC:WWEF1:1,2016-03-07T14:00:00Z,25.2320,-80.9380,1.0,22.04,2 
ENP,ioos.station.NOAA.NDBC:WWEF1:1,2016-03-07T15:00:00Z,25.2320,-80.9380,1.0,22.03,2 
ENP,ioos.station.NOAA.NDBC:WWEF1:1,2016-03-07T16:00:00Z,25.2320,-80.9380,1.0,22.23,2 
ENP,ioos.station.NOAA.NDBC:WWEF1:1,2016-03-07T17:00:00Z,25.2320,-80.9380,1.0,22.54,2 
ENP,ioos.station.NOAA.NDBC:WWEF1:1,2016-03-07T18:00:00Z,25.2320,-80.9380,1.0,22.71,2 
ENP,ioos.station.NOAA.NDBC:WWEF1:1,2016-03-07T19:00:00Z,25.2320,-80.9380,1.0,22.82,2 
ENP,ioos.station.NOAA.NDBC:WWEF1:1,2016-03-07T20:00:00Z,25.2320,-80.9380,1.0,22.91,2 
ENP,ioos.station.NOAA.NDBC:WWEF1:1,2016-03-08T09:00:00Z,25.2320,-80.9380,1.0,21.74,2 
ENP,ioos.station.NOAA.NDBC:WWEF1:1,2016-03-08T10:00:00Z,25.2320,-80.9380,1.0,21.7,2 
ENP,ioos.station.NOAA.NDBC:WWEF1:1,2016-03-08T11:00:00Z,25.2320,-80.9380,1.0,21.58,2 
ENP,ioos.station.NOAA.NDBC:WWEF1:1,2016-03-08T12:00:00Z,25.2320,-80.9380,1.0,21.53,2 
ENP,ioos.station.NOAA.NDBC:WWEF1:1,2016-03-08T13:00:00Z,25.2320,-80.9380,1.0,21.47,2 
ENP,ioos.station.NOAA.NDBC:WWEF1:1,2016-03-08T14:00:00Z,25.2320,-80.9380,1.0,21.45,2 
ENP,ioos.station.NOAA.NDBC:WWEF1:1,2016-03-08T15:00:00Z,25.2320,-80.9380,1.0,21.56,2 
ENP,ioos.station.NOAA.NDBC:WWEF1:1,2016-03-08T16:00:00Z,25.2320,-80.9380,1.0,21.8,2 
ENP,ioos.station.NOAA.NDBC:WWEF1:1,2016-03-08T17:00:00Z,25.2320,-80.9380,1.0,21.89,2 
ENP,ioos.station.NOAA.NDBC:WWEF1:1,2016-03-08T18:00:00Z,25.2320,-80.9380,1.0,21.92,2 
ENP,ioos.station.NOAA.NDBC:WWEF1:1,2016-03-08T19:00:00Z,25.2320,-80.9380,1.0,22.18,2 
ENP,ioos.station.NOAA.NDBC:WWEF1:1,2016-03-08T20:00:00Z,25.2320,-80.9380,1.0,22.31,2 
ENP,ioos.station.NOAA.NDBC:WWEF1:1,2016-03-08T21:00:00Z,25.2320,-80.9380,1.0,22.35,2 
ENP,ioos.station.NOAA.NDBC:WWEF1:1,2016-03-08T22:00:00Z,25.2320,-80.9380,1.0,22.37,2 
ENP,ioos.station.NOAA.NDBC:WWEF1:1,2016-03-08T23:00:00Z,25.2320,-80.9380,1.0,22.32,2 
ENP,ioos.station.NOAA.NDBC:WWEF1:1,2016-03-09T00:00:00Z,25.2320,-80.9380,1.0,22.23,2 
ENP,ioos.station.NOAA.NDBC:WWEF1:1,2016-03-09T01:00:00Z,25.2320,-80.9380,1.0,22.13,2 
ENP,ioos.station.NOAA.NDBC:WWEF1:1,2016-03-09T07:00:00Z,25.2320,-80.9380,1.0,21.59,2 
ENP,ioos.station.NOAA.NDBC:WWEF1:1,2016-03-09T08:00:00Z,25.2320,-80.9380,1.0,21.51,2 
ENP,ioos.station.NOAA.NDBC:WWEF1:1,2016-03-09T09:00:00Z,25.2320,-80.9380,1.0,21.4,2 
ENP,ioos.station.NOAA.NDBC:WWEF1:1,2016-03-09T10:00:00Z,25.2320,-80.9380,1.0,21.32,2 
ENP,ioos.station.NOAA.NDBC:WWEF1:1,2016-03-09T11:00:00Z,25.2320,-80.9380,1.0,21.28,2 
ENP,ioos.station.NOAA.NDBC:WWEF1:1,2016-03-09T12:00:00Z,25.2320,-80.9380,1.0,21.22,2 
ENP,ioos.station.NOAA.NDBC:WWEF1:1,2016-03-09T13:00:00Z,25.2320,-80.9380,1.0,21.15,2 
ENP,ioos.station.NOAA.NDBC:WWEF1:1,2016-03-09T14:00:00Z,25.2320,-80.9380,1.0,21.12,2 
ENP,ioos.station.NOAA.NDBC:WWEF1:1,2016-03-09T15:00:00Z,25.2320,-80.9380,1.0,21.21,2 
ENP,ioos.station.NOAA.NDBC:WWEF1:1,2016-03-09T16:00:00Z,25.2320,-80.9380,1.0,21.45,2 
ENP,ioos.station.NOAA.NDBC:WWEF1:1,2016-03-09T17:00:00Z,25.2320,-80.9380,1.0,21.79,2 
ENP,ioos.station.NOAA.NDBC:WWEF1:1,2016-03-09T18:00:00Z,25.2320,-80.9380,1.0,22.0,2 
ENP,ioos.station.NOAA.NDBC:WWEF1:1,2016-03-09T19:00:00Z,25.2320,-80.9380,1.0,22.22,2 
ENP,ioos.station.NOAA.NDBC:WWEF1:1,2016-03-09T20:00:00Z,25.2320,-80.9380,1.0,22.43,2 
ENP,ioos.station.NOAA.NDBC:WWEF1:1,2016-03-09T21:00:00Z,25.2320,-80.9380,1.0,22.76,2 
ENP,ioos.station.NOAA.NDBC:WWEF1:1,2016-03-09T22:00:00Z,25.2320,-80.9380,1.0,22.88,2 
ENP,ioos.station.NOAA.NDBC:WWEF1:1,2016-03-09T23:00:00Z,25.2320,-80.9380,1.0,22.83,2 
ENP,ioos.station.NOAA.NDBC:WWEF1:1,2016-03-10T00:00:00Z,25.2320,-80.9380,1.0,22.74,2 
ENP,ioos.station.NOAA.NDBC:WWEF1:1,2016-03-10T01:00:00Z,25.2320,-80.9380,1.0,22.71,2 
ENP,ioos.station.NOAA.NDBC:WWEF1:1,2016-03-10T04:00:00Z,25.2320,-80.9380,1.0,22.34,2 
ENP,ioos.station.NOAA.NDBC:WWEF1:1,2016-03-10T07:00:00Z,25.2320,-80.9380,1.0,22.04,2 
ENP,ioos.station.NOAA.NDBC:WWEF1:1,2016-03-10T08:00:00Z,25.2320,-80.9380,1.0,21.87,2 
ENP,ioos.station.NOAA.NDBC:WWEF1:1,2016-03-10T09:00:00Z,25.2320,-80.9380,1.0,21.81,2 
ENP,ioos.station.NOAA.NDBC:WWEF1:1,2016-03-10T11:00:00Z,25.2320,-80.9380,1.0,21.67,2 
ENP,ioos.station.NOAA.NDBC:WWEF1:1,2016-03-10T12:00:00Z,25.2320,-80.9380,1.0,21.58,2 
ENP,ioos.station.NOAA.NDBC:WWEF1:1,2016-03-10T13:00:00Z,25.2320,-80.9380,1.0,21.55,2 
ENP,ioos.station.NOAA.NDBC:WWEF1:1,2016-03-10T14:00:00Z,25.2320,-80.9380,1.0,21.64,2 
ENP,ioos.station.NOAA.NDBC:WWEF1:1,2016-03-10T15:00:00Z,25.2320,-80.9380,1.0,21.79,2 
ENP,ioos.station.NOAA.NDBC:WWEF1:1,2016-03-10T16:00:00Z,25.2320,-80.9380,1.0,22.08,2 
ENP,ioos.station.NOAA.NDBC:WWEF1:1,2016-03-10T17:00:00Z,25.2320,-80.9380,1.0,22.54,2 
ENP,ioos.station.NOAA.NDBC:WWEF1:1,2016-03-10T18:00:00Z,25.2320,-80.9380,1.0,22.91,2 
ENP,ioos.station.NOAA.NDBC:WWEF1:1,2016-03-10T19:00:00Z,25.2320,-80.9380,1.0,23.34,2 
ENP,ioos.station.NOAA.NDBC:WWEF1:1,2016-03-10T20:00:00Z,25.2320,-80.9380,1.0,23.66,2 
ENP,ioos.station.NOAA.NDBC:WWEF1:1,2016-03-10T21:00:00Z,25.2320,-80.9380,1.0,23.99,2 
ENP,ioos.station.NOAA.NDBC:WWEF1:1,2016-03-10T22:00:00Z,25.2320,-80.9380,1.0,24.12,2 
ENP,ioos.station.NOAA.NDBC:WWEF1:1,2016-03-10T23:00:00Z,25.2320,-80.9380,1.0,24.07,2 
ENP,ioos.station.NOAA.NDBC:WWEF1:1,2016-03-11T00:00:00Z,25.2320,-80.9380,1.0,23.9,2 
ENP,ioos.station.NOAA.NDBC:WWEF1:1,2016-03-11T01:00:00Z,25.2320,-80.9380,1.0,23.73,2 
ENP,ioos.station.NOAA.NDBC:WWEF1:1,2016-03-11T04:00:00Z,25.2320,-80.9380,1.0,23.33,2 
ENP,ioos.station.NOAA.NDBC:WWEF1:1,2016-03-11T07:00:00Z,25.2320,-80.9380,1.0,22.95,2 
ENP,ioos.station.NOAA.NDBC:WWEF1:1,2016-03-11T08:00:00Z,25.2320,-80.9380,1.0,22.81,2 
ENP,ioos.station.NOAA.NDBC:WWEF1:1,2016-03-11T09:00:00Z,25.2320,-80.9380,1.0,22.7,2 
ENP,ioos.station.NOAA.NDBC:WWEF1:1,2016-03-11T10:00:00Z,25.2320,-80.9380,1.0,22.65,2 
ENP,ioos.station.NOAA.NDBC:WWEF1:1,2016-03-11T11:00:00Z,25.2320,-80.9380,1.0,22.74,2 
ENP,ioos.station.NOAA.NDBC:WWEF1:1,2016-03-11T12:00:00Z,25.2320,-80.9380,1.0,22.8,2 
ENP,ioos.station.NOAA.NDBC:WWEF1:1,2016-03-11T13:00:00Z,25.2320,-80.9380,1.0,22.77,2 
ENP,ioos.station.NOAA.NDBC:WWEF1:1,2016-03-11T14:00:00Z,25.2320,-80.9380,1.0,22.61,2 
ENP,ioos.station.NOAA.NDBC:WWEF1:1,2016-03-11T15:00:00Z,25.2320,-80.9380,1.0,22.77,2 
ENP,ioos.station.NOAA.NDBC:WWEF1:1,2016-03-11T16:00:00Z,25.2320,-80.9380,1.0,23.13,2 
ENP,ioos.station.NOAA.NDBC:WWEF1:1,2016-03-11T17:00:00Z,25.2320,-80.9380,1.0,23.34,2 
ENP,ioos.station.NOAA.NDBC:WWEF1:1,2016-03-11T18:00:00Z,25.2320,-80.9380,1.0,23.62,2 
ENP,ioos.station.NOAA.NDBC:WWEF1:1,2016-03-11T19:00:00Z,25.2320,-80.9380,1.0,23.99,2 
ENP,ioos.station.NOAA.NDBC:WWEF1:1,2016-03-11T20:00:00Z,25.2320,-80.9380,1.0,24.27,2 
ENP,ioos.station.NOAA.NDBC:WWEF1:1,2016-03-11T21:00:00Z,25.2320,-80.9380,1.0,24.38,2 
ENP,ioos.station.NOAA.NDBC:WWEF1:1,2016-03-11T22:00:00Z,25.2320,-80.9380,1.0,24.4,2 
ENP,ioos.station.NOAA.NDBC:WWEF1:1,2016-03-11T23:00:00Z,25.2320,-80.9380,1.0,24.34,2 
ENP,ioos.station.NOAA.NDBC:WWEF1:1,2016-03-12T00:00:00Z,25.2320,-80.9380,1.0,24.25,2 
ENP,ioos.station.NOAA.NDBC:WWEF1:1,2016-03-12T01:00:00Z,25.2320,-80.9380,1.0,24.26,2 
ENP,ioos.station.NOAA.NDBC:WWEF1:1,2016-03-12T04:00:00Z,25.2320,-80.9380,1.0,23.93,2 
ENP,ioos.station.NOAA.NDBC:WWEF1:1,2016-03-12T07:00:00Z,25.2320,-80.9380,1.0,23.62,2 
ENP,ioos.station.NOAA.NDBC:WWEF1:1,2016-03-12T08:00:00Z,25.2320,-80.9380,1.0,23.54,2 
ENP,ioos.station.NOAA.NDBC:WWEF1:1,2016-03-12T09:00:00Z,25.2320,-80.9380,1.0,23.41,2 
ENP,ioos.station.NOAA.NDBC:WWEF1:1,2016-03-12T10:00:00Z,25.2320,-80.9380,1.0,23.37,2 
ENP,ioos.station.NOAA.NDBC:WWEF1:1,2016-03-12T11:00:00Z,25.2320,-80.9380,1.0,23.31,2 
ENP,ioos.station.NOAA.NDBC:WWEF1:1,2016-03-12T12:00:00Z,25.2320,-80.9380,1.0,23.25,2 
ENP,ioos.station.NOAA.NDBC:WWEF1:1,2016-03-12T13:00:00Z,25.2320,-80.9380,1.0,23.21,2 
ENP,ioos.station.NOAA.NDBC:WWEF1:1,2016-03-12T14:00:00Z,25.2320,-80.9380,1.0,23.21,2 
ENP,ioos.station.NOAA.NDBC:WWEF1:1,2016-03-12T15:00:00Z,25.2320,-80.9380,1.0,23.28,2 
ENP,ioos.station.NOAA.NDBC:WWEF1:1,2016-03-12T16:00:00Z,25.2320,-80.9380,1.0,23.5,2 
ENP,ioos.station.NOAA.NDBC:WWEF1:1,2016-03-12T17:00:00Z,25.2320,-80.9380,1.0,23.75,2 
ENP,ioos.station.NOAA.NDBC:WWEF1:1,2016-03-12T18:00:00Z,25.2320,-80.9380,1.0,24.03,2 
ENP,ioos.station.NOAA.NDBC:WWEF1:1,2016-03-12T19:00:00Z,25.2320,-80.9380,1.0,24.3,2 
ENP,ioos.station.NOAA.NDBC:WWEF1:1,2016-03-12T20:00:00Z,25.2320,-80.9380,1.0,24.56,2 
ENP,ioos.station.NOAA.NDBC:WWEF1:1,2016-03-12T21:00:00Z,25.2320,-80.9380,1.0,24.76,2 
ENP,ioos.station.NOAA.NDBC:WWEF1:1,2016-03-12T22:00:00Z,25.2320,-80.9380,1.0,24.89,2 
ENP,ioos.station.NOAA.NDBC:WWEF1:1,2016-03-12T23:00:00Z,25.2320,-80.9380,1.0,24.91,2 
ENP,ioos.station.NOAA.NDBC:WWEF1:1,2016-03-13T00:00:00Z,25.2320,-80.9380,1.0,24.87,2 
ENP,ioos.station.NOAA.NDBC:WWEF1:1,2016-03-13T01:00:00Z,25.2320,-80.9380,1.0,24.78,2 
ENP,ioos.station.NOAA.NDBC:WWEF1:1,2016-03-17T15:00:00Z,25.2320,-80.9380,1.0,26.98,2 
ENP,ioos.station.NOAA.NDBC:WWEF1:1,2016-03-17T16:00:00Z,25.2320,-80.9380,1.0,27.06,2 
ENP,ioos.station.NOAA.NDBC:WWEF1:1,2016-03-17T17:00:00Z,25.2320,-80.9380,1.0,27.63,2 
ENP,ioos.station.NOAA.NDBC:WWEF1:1,2016-03-17T18:00:00Z,25.2320,-80.9380,1.0,28.45,2 
ENP,ioos.station.NOAA.NDBC:WWEF1:1,2016-03-17T19:00:00Z,25.2320,-80.9380,1.0,29.02,2 
ENP,ioos.station.NOAA.NDBC:WWEF1:1,2016-03-17T20:00:00Z,25.2320,-80.9380,1.0,29.23,2 
ENP,ioos.station.NOAA.NDBC:WWEF1:1,2016-03-17T21:00:00Z,25.2320,-80.9380,1.0,29.34,2 
ENP,ioos.station.NOAA.NDBC:WWEF1:1,2016-03-17T22:00:00Z,25.2320,-80.9380,1.0,29.44,2 
ENP,ioos.station.NOAA.NDBC:WWEF1:1,2016-03-17T23:00:00Z,25.2320,-80.9380,1.0,29.26,2 
ENP,ioos.station.NOAA.NDBC:WWEF1:1,2016-03-18T00:00:00Z,25.2320,-80.9380,1.0,28.75,2 
ENP,ioos.station.NOAA.NDBC:WWEF1:1,2016-03-18T03:00:00Z,25.2320,-80.9380,1.0,28.15,2 
ENP,ioos.station.NOAA.NDBC:WWEF1:1,2016-03-18T06:00:00Z,25.2320,-80.9380,1.0,27.68,2 
ENP,ioos.station.NOAA.NDBC:WWEF1:1,2016-03-18T07:00:00Z,25.2320,-80.9380,1.0,27.46,2 
ENP,ioos.station.NOAA.NDBC:WWEF1:1,2016-03-18T08:00:00Z,25.2320,-80.9380,1.0,27.16,2 
ENP,ioos.station.NOAA.NDBC:WWEF1:1,2016-03-18T09:00:00Z,25.2320,-80.9380,1.0,26.94,2 
ENP,ioos.station.NOAA.NDBC:WWEF1:1,2016-03-18T10:00:00Z,25.2320,-80.9380,1.0,26.75,2 
ENP,ioos.station.NOAA.NDBC:WWEF1:1,2016-03-18T11:00:00Z,25.2320,-80.9380,1.0,26.63,2 
ENP,ioos.station.NOAA.NDBC:WWEF1:1,2016-03-18T12:00:00Z,25.2320,-80.9380,1.0,26.53,2 
ENP,ioos.station.NOAA.NDBC:WWEF1:1,2016-03-18T13:00:00Z,25.2320,-80.9380,1.0,26.49,2 
ENP,ioos.station.NOAA.NDBC:WWEF1:1,2016-03-18T14:00:00Z,25.2320,-80.9380,1.0,26.55,2 
ENP,ioos.station.NOAA.NDBC:WWEF1:1,2016-03-18T15:00:00Z,25.2320,-80.9380,1.0,26.62,2 
ENP,ioos.station.NOAA.NDBC:WWEF1:1,2016-03-18T16:00:00Z,25.2320,-80.9380,1.0,26.73,2 
ENP,ioos.station.NOAA.NDBC:WWEF1:1,2016-03-18T17:00:00Z,25.2320,-80.9380,1.0,27.22,2 
ENP,ioos.station.NOAA.NDBC:WWEF1:1,2016-03-18T18:00:00Z,25.2320,-80.9380,1.0,27.88,2 
ENP,ioos.station.NOAA.NDBC:WWEF1:1,2016-03-18T19:00:00Z,25.2320,-80.9380,1.0,28.19,2 
ENP,ioos.station.NOAA.NDBC:WWEF1:1,2016-03-18T20:00:00Z,25.2320,-80.9380,1.0,28.66,2 
ENP,ioos.station.NOAA.NDBC:WWEF1:1,2016-03-18T21:00:00Z,25.2320,-80.9380,1.0,29.03,2 
ENP,ioos.station.NOAA.NDBC:WWEF1:1,2016-03-18T22:00:00Z,25.2320,-80.9380,1.0,29.17,2 
ENP,ioos.station.NOAA.NDBC:WWEF1:1,2016-03-18T23:00:00Z,25.2320,-80.9380,1.0,29.18,2 
ENP,ioos.station.NOAA.NDBC:WWEF1:1,2016-03-19T00:00:00Z,25.2320,-80.9380,1.0,28.98,2 
ENP,ioos.station.NOAA.NDBC:WWEF1:1,2016-03-19T03:00:00Z,25.2320,-80.9380,1.0,28.48,2 
ENP,ioos.station.NOAA.NDBC:WWEF1:1,2016-03-19T06:00:00Z,25.2320,-80.9380,1.0,27.81,2 
ENP,ioos.station.NOAA.NDBC:WWEF1:1,2016-03-19T07:00:00Z,25.2320,-80.9380,1.0,27.66,2 
ENP,ioos.station.NOAA.NDBC:WWEF1:1,2016-03-19T08:00:00Z,25.2320,-80.9380,1.0,27.56,2 
ENP,ioos.station.NOAA.NDBC:WWEF1:1,2016-03-19T09:00:00Z,25.2320,-80.9380,1.0,27.49,2 
ENP,ioos.station.NOAA.NDBC:WWEF1:1,2016-03-19T10:00:00Z,25.2320,-80.9380,1.0,27.37,2 
ENP,ioos.station.NOAA.NDBC:WWEF1:1,2016-03-19T11:00:00Z,25.2320,-80.9380,1.0,27.19,2 
ENP,ioos.station.NOAA.NDBC:WWEF1:1,2016-03-19T12:00:00Z,25.2320,-80.9380,1.0,27.06,2 
ENP,ioos.station.NOAA.NDBC:WWEF1:1,2016-03-19T13:00:00Z,25.2320,-80.9380,1.0,26.97,2 
ENP,ioos.station.NOAA.NDBC:WWEF1:1,2016-03-19T14:00:00Z,25.2320,-80.9380,1.0,26.99,2 
ENP,ioos.station.NOAA.NDBC:WWEF1:1,2016-03-19T15:00:00Z,25.2320,-80.9380,1.0,27.2,2 
ENP,ioos.station.NOAA.NDBC:WWEF1:1,2016-03-19T16:00:00Z,25.2320,-80.9380,1.0,27.4,2 
ENP,ioos.station.NOAA.NDBC:WWEF1:1,2016-03-19T17:00:00Z,25.2320,-80.9380,1.0,27.72,2 
ENP,ioos.station.NOAA.NDBC:WWEF1:1,2016-03-19T18:00:00Z,25.2320,-80.9380,1.0,28.0,2 
ENP,ioos.station.NOAA.NDBC:WWEF1:1,2016-03-19T19:00:00Z,25.2320,-80.9380,1.0,28.31,2 
ENP,ioos.station.NOAA.NDBC:WWEF1:1,2016-03-19T20:00:00Z,25.2320,-80.9380,1.0,28.3,2 
ENP,ioos.station.NOAA.NDBC:WWEF1:1,2016-03-19T21:00:00Z,25.2320,-80.9380,1.0,28.33,2 
ENP,ioos.station.NOAA.NDBC:WWEF1:1,2016-03-19T22:00:00Z,25.2320,-80.9380,1.0,28.35,2 
ENP,ioos.station.NOAA.NDBC:WWEF1:1,2016-03-19T23:00:00Z,25.2320,-80.9380,1.0,28.33,2 
ENP,ioos.station.NOAA.NDBC:WWEF1:1,2016-03-20T00:00:00Z,25.2320,-80.9380,1.0,28.28,2 
ENP,ioos.station.NOAA.NDBC:WWEF1:1,2016-03-20T03:00:00Z,25.2320,-80.9380,1.0,28.11,2 
ENP,ioos.station.NOAA.NDBC:WWEF1:1,2016-03-20T06:00:00Z,25.2320,-80.9380,1.0,27.73,2 
ENP,ioos.station.NOAA.NDBC:WWEF1:1,2016-03-20T07:00:00Z,25.2320,-80.9380,1.0,27.54,2 